| time (UTC) | temp F | wind direction | speed MPH | gust MPH | rain 1hr in | rain 24hr in | rain mn in | humidity % | barometer mb |
| 20260507105109 | 0 | 204 | 1.0 | 2.0 | 0.00 | 0.00 | 0.04 | 74 | 1027.2 |
| 20260507104609 | 0 | 199 | 1.0 | 2.0 | 0.00 | 0.00 | 0.04 | 71 | 1027.2 |
| 20260507104109 | 0 | 198 | 0.0 | 1.0 | 0.00 | 0.00 | 0.04 | 71 | 1027.4 |
| 20260507103609 | 0 | 171 | 2.0 | 5.0 | 0.00 | 0.00 | 0.04 | 70 | 1027.4 |
| 20260507103110 | 0 | 161 | 2.0 | 3.0 | 0.00 | 0.00 | 0.04 | 71 | 1027.4 |
| 20260507102609 | 0 | 178 | 0.0 | 1.0 | 0.00 | 0.00 | 0.04 | 68 | 1027.2 |
| 20260507102108 | 0 | 207 | 1.0 | 2.0 | 0.00 | 0.00 | 0.04 | 72 | 1027.4 |
| 20260507101608 | 0 | 33 | 1.0 | 3.0 | 0.00 | 0.00 | 0.04 | 72 | 1027.4 |
| 20260507101109 | 0 | 76 | 1.0 | 2.0 | 0.00 | 0.00 | 0.04 | 74 | 1027.2 |
| 20260507100609 | 0 | 359 | 2.0 | 3.0 | 0.00 | 0.00 | 0.04 | 74 | 1027.4 |
| 20260507100109 | 0 | 159 | 0.0 | 2.0 | 0.00 | 0.00 | 0.04 | 72 | 1027.2 |
| 20260507095608 | 0 | 176 | 2.0 | 3.0 | 0.00 | 0.00 | 0.04 | 70 | 1027.2 |
| 20260507095109 | 0 | 150 | 2.0 | 3.0 | 0.00 | 0.00 | 0.04 | 67 | 1027.4 |
| 20260507094609 | 0 | 204 | 0.0 | 1.0 | 0.00 | 0.00 | 0.04 | 72 | 1027.2 |
| 20260507094109 | 0 | 229 | 0.0 | 1.0 | 0.00 | 0.00 | 0.04 | 76 | 1027.2 |
| 20260507093609 | 0 | 246 | 3.0 | 4.0 | 0.00 | 0.00 | 0.04 | 71 | 1027.5 |
| 20260507093109 | 0 | 165 | 1.0 | 2.0 | 0.00 | 0.00 | 0.04 | 70 | 1027.2 |
| 20260507092609 | 0 | 206 | 1.0 | 2.0 | 0.00 | 0.00 | 0.04 | 69 | 1027.2 |
| 20260507092108 | 0 | 240 | 0.0 | 2.0 | 0.00 | 0.00 | 0.04 | 71 | 1027.0 |
| 20260507091608 | 0 | 174 | 1.0 | 2.0 | 0.00 | 0.00 | 0.04 | 71 | 1027.4 |
| 20260507091109 | 0 | 202 | 0.0 | 1.0 | 0.00 | 0.00 | 0.04 | 73 | 1027.2 |
| 20260507090609 | 0 | 174 | 0.0 | 1.0 | 0.00 | 0.00 | 0.04 | 75 | 1027.4 |
| 20260507090108 | 0 | 200 | 0.0 | 1.0 | 0.00 | 0.00 | 0.04 | 76 | 1027.2 |
| 20260507085609 | 0 | 210 | 2.0 | 3.0 | 0.00 | 0.00 | 0.04 | 76 | 1027.2 |
| 20260507085109 | 0 | 202 | 4.0 | 6.0 | 0.00 | 0.00 | 0.04 | 76 | 1027.2 |
| 20260507084609 | 0 | 191 | 1.0 | 2.0 | 0.00 | 0.00 | 0.04 | 77 | 1027.0 |
| 20260507084108 | 0 | 66 | 1.0 | 2.0 | 0.00 | 0.00 | 0.04 | 76 | 1027.0 |
| 20260507083608 | 0 | 115 | 2.0 | 5.0 | 0.00 | 0.00 | 0.04 | 76 | 1026.7 |
| 20260507083108 | 0 | 209 | 0.0 | 1.0 | 0.00 | 0.00 | 0.04 | 77 | 1026.9 |
| 20260507082609 | 0 | 262 | 1.0 | 3.0 | 0.00 | 0.00 | 0.04 | 78 | 1026.9 |
| 20260507082109 | 0 | 206 | 0.0 | 1.0 | 0.00 | 0.00 | 0.04 | 79 | 1026.7 |
| 20260507081608 | 0 | 199 | 1.0 | 2.0 | 0.00 | 0.00 | 0.04 | 81 | 1026.9 |
| 20260507081108 | 0 | 202 | 0.0 | 1.0 | 0.00 | 0.00 | 0.04 | 83 | 1026.9 |
| 20260507080609 | 0 | 206 | 3.0 | 4.0 | 0.00 | 0.00 | 0.04 | 83 | 1026.7 |
| 20260507080109 | 0 | 195 | 1.0 | 2.0 | 0.00 | 0.00 | 0.04 | 82 | 1026.7 |
| 20260507075609 | 0 | 219 | 0.0 | 1.0 | 0.04 | 0.00 | 0.04 | 85 | 1026.7 |
| 20260507075108 | 0 | 220 | 3.0 | 5.0 | 0.04 | 0.00 | 0.04 | 85 | 1026.7 |
| 20260507074608 | 0 | 202 | 1.0 | 2.0 | 0.04 | 0.00 | 0.04 | 88 | 1026.5 |
| 20260507074109 | 0 | 194 | 1.0 | 2.0 | 0.04 | 0.00 | 0.04 | 88 | 1026.7 |
| 20260507073608 | 0 | 186 | 0.0 | 1.0 | 0.03 | 0.00 | 0.03 | 88 | 1026.7 |
| 20260507073108 | 0 | 191 | 0.0 | 1.0 | 0.03 | 0.00 | 0.03 | 86 | 1026.7 |
| 20260507072608 | 0 | 201 | 0.0 | 1.0 | 0.03 | 0.00 | 0.03 | 85 | 1026.5 |
| 20260507072109 | 0 | 221 | 1.0 | 2.0 | 0.03 | 0.00 | 0.03 | 85 | 1026.7 |
| 20260507071610 | 0 | 192 | 0.0 | 0.0 | 0.00 | 0.00 | 0.00 | 80 | 1026.5 |
| 20260507071109 | 0 | 203 | 0.0 | 1.0 | 0.00 | 0.00 | 0.00 | 77 | 1026.5 |
| 20260507070608 | 0 | 200 | 0.0 | 1.0 | 0.00 | 0.00 | 0.00 | 75 | 1026.5 |
| 20260507070108 | 0 | 197 | 0.0 | 0.0 | 0.00 | 0.00 | 0.00 | 78 | 1026.5 |
| 20260507065609 | 0 | 203 | 0.0 | 0.0 | 0.00 | 0.00 | 0.00 | 76 | 1026.4 |
| 20260507065109 | 0 | 257 | 0.0 | 2.0 | 0.00 | 0.00 | 0.00 | 82 | 1026.4 |
| 20260507064609 | 0 | 200 | 0.0 | 1.0 | 0.00 | 0.00 | 0.00 | 84 | 1026.2 |
| 20260507064108 | 0 | 198 | 0.0 | 1.0 | 0.00 | 0.00 | 0.00 | 84 | 1026.2 |
| 20260507063609 | 0 | 210 | 1.0 | 2.0 | 0.00 | 0.00 | 0.00 | 84 | 1026.0 |
| 20260507063109 | 0 | 227 | 0.0 | 1.0 | 0.00 | 0.00 | 0.00 | 84 | 1026.2 |
| 20260507062609 | 0 | 184 | 0.0 | 0.0 | 0.00 | 0.00 | 0.00 | 83 | 1026.0 |
| 20260507062108 | 0 | 204 | 0.0 | 0.0 | 0.00 | 0.00 | 0.00 | 83 | 1026.0 |
| 20260507061608 | 0 | 197 | 0.0 | 0.0 | 0.00 | 0.00 | 0.00 | 83 | 1026.0 |
| 20260507061109 | 0 | 192 | 0.0 | 0.0 | 0.00 | 0.00 | 0.00 | 83 | 1026.2 |
| 20260507060609 | 0 | 200 | 0.0 | 0.0 | 0.00 | 0.00 | 0.00 | 81 | 1026.0 |
| 20260507060109 | 0 | 196 | 0.0 | 1.0 | 0.00 | 0.00 | 0.00 | 82 | 1026.0 |
| 20260507055609 | 0 | 201 | 0.0 | 0.0 | 0.00 | 0.00 | 0.00 | 81 | 1026.0 |
| 20260507055109 | 0 | 199 | 1.0 | 2.0 | 0.00 | 0.00 | 0.00 | 82 | 1026.0 |
| 20260507054609 | 0 | 213 | 1.0 | 2.0 | 0.00 | 0.00 | 0.00 | 85 | 1026.0 |
| 20260507054108 | 0 | 189 | 0.0 | 2.0 | 0.00 | 0.00 | 0.00 | 86 | 1026.0 |
| 20260507053609 | 0 | 220 | 0.0 | 1.0 | 0.00 | 0.00 | 0.00 | 85 | 1026.0 |
| 20260507053109 | 0 | 209 | 0.0 | 1.0 | 0.00 | 0.00 | 0.00 | 86 | 1025.7 |
| 20260507052608 | 0 | 197 | 0.0 | 1.0 | 0.00 | 0.00 | 0.00 | 87 | 1025.7 |
| 20260507052109 | 0 | 210 | 1.0 | 2.0 | 0.00 | 0.00 | 0.00 | 88 | 1025.7 |
| 20260507051609 | 0 | 214 | 0.0 | 1.0 | 0.00 | 0.00 | 0.00 | 88 | 1025.7 |
| 20260507051109 | 0 | 220 | 1.0 | 2.0 | 0.00 | 0.00 | 0.00 | 88 | 1025.7 |
| 20260507050608 | 0 | 202 | 0.0 | 1.0 | 0.00 | 0.00 | 0.00 | 89 | 1025.5 |
| 20260507050108 | 0 | 197 | 1.0 | 1.0 | 0.00 | 0.00 | 0.00 | 88 | 1025.5 |
| 20260507045609 | 0 | 202 | 0.0 | 1.0 | 0.00 | 0.00 | 0.00 | 88 | 1025.4 |
| 20260507045108 | 0 | 217 | 0.0 | 1.0 | 0.00 | 0.00 | 0.00 | 88 | 1025.4 |
| 20260507044608 | 0 | 209 | 0.0 | 1.0 | 0.00 | 0.00 | 0.00 | 89 | 1025.4 |
| 20260507044108 | 0 | 197 | 0.0 | 1.0 | 0.00 | 0.00 | 0.00 | 89 | 1025.5 |
| 20260507043608 | 0 | 199 | 1.0 | 2.0 | 0.00 | 0.00 | 0.00 | 90 | 1025.5 |
| 20260507043109 | 0 | 199 | 3.0 | 4.0 | 0.00 | 0.00 | 0.00 | 89 | 1025.2 |
| 20260507042609 | 0 | 189 | 2.0 | 3.0 | 0.00 | 0.00 | 0.00 | 89 | 1025.2 |
| 20260507042108 | 0 | 211 | 0.0 | 1.0 | 0.00 | 0.00 | 0.00 | 89 | 1025.2 |
| 20260507041609 | 0 | 190 | 0.0 | 1.0 | 0.00 | 0.00 | 0.00 | 88 | 1025.4 |
| 20260507041109 | 0 | 225 | 1.0 | 2.0 | 0.00 | 0.00 | 0.00 | 88 | 1025.4 |
| 20260507040609 | 0 | 199 | 1.0 | 2.0 | 0.00 | 0.00 | 0.00 | 88 | 1025.2 |
| 20260507040109 | 0 | 263 | 3.0 | 4.0 | 0.00 | 0.00 | 0.00 | 88 | 1025.2 |
| 20260507035609 | 0 | 226 | 2.0 | 3.0 | 0.00 | 0.00 | 0.00 | 89 | 1025.2 |
| 20260507035108 | 0 | 228 | 1.0 | 2.0 | 0.00 | 0.00 | 0.00 | 89 | 1025.4 |
| 20260507034608 | 0 | 206 | 0.0 | 1.0 | 0.00 | 0.00 | 0.00 | 90 | 1025.2 |
| 20260507034108 | 0 | 220 | 2.0 | 3.0 | 0.00 | 0.00 | 0.00 | 90 | 1025.2 |
| 20260507033609 | 0 | 213 | 1.0 | 2.0 | 0.00 | 0.00 | 0.00 | 90 | 1025.4 |
| 20260507033109 | 0 | 219 | 1.0 | 1.0 | 0.00 | 0.00 | 0.00 | 90 | 1025.4 |
| 20260507032608 | 0 | 237 | 2.0 | 3.0 | 0.00 | 0.00 | 0.00 | 89 | 1025.2 |
| 20260507032109 | 0 | 227 | 1.0 | 2.0 | 0.00 | 0.00 | 0.00 | 90 | 1025.2 |
| 20260507031608 | 0 | 222 | 2.0 | 3.0 | 0.00 | 0.00 | 0.00 | 89 | 1025.0 |
| 20260507031109 | 0 | 204 | 2.0 | 3.0 | 0.00 | 0.00 | 0.00 | 89 | 1025.0 |
| 20260507030609 | 0 | 222 | 2.0 | 4.0 | 0.00 | 0.00 | 0.00 | 90 | 1025.2 |
| 20260507030108 | 0 | 227 | 3.0 | 4.0 | 0.00 | 0.00 | 0.00 | 91 | 1025.2 |
| 20260507025609 | 0 | 214 | 2.0 | 3.0 | 0.00 | 0.00 | 0.00 | 91 | 1025.2 |
| 20260507025109 | 0 | 209 | 0.0 | 1.0 | 0.00 | 0.00 | 0.00 | 90 | 1025.0 |
| 20260507024608 | 0 | 210 | 3.0 | 5.0 | 0.00 | 0.00 | 0.00 | 90 | 1025.2 |
| 20260507024108 | 0 | 203 | 1.0 | 2.0 | 0.00 | 0.00 | 0.00 | 89 | 1025.2 |
| 20260507023608 | 0 | 195 | 1.0 | 2.0 | 0.00 | 0.00 | 0.00 | 89 | 1025.2 |
| 20260507023108 | 0 | 211 | 2.0 | 3.0 | 0.00 | 0.00 | 0.00 | 89 | 1025.2 |
| 20260507022608 | 0 | 242 | 2.0 | 3.0 | 0.00 | 0.00 | 0.00 | 90 | 1025.2 |
| 20260507022108 | 0 | 195 | 2.0 | 3.0 | 0.00 | 0.00 | 0.00 | 90 | 1025.2 |
| 20260507021610 | 0 | 216 | 2.0 | 2.0 | 0.00 | 0.00 | 0.00 | 91 | 1025.2 |
| 20260507021109 | 0 | 222 | 1.0 | 2.0 | 0.00 | 0.00 | 0.00 | 90 | 1025.2 |
| 20260507020610 | 0 | 231 | 3.0 | 4.0 | 0.00 | 0.00 | 0.00 | 90 | 1025.0 |
| 20260507020109 | 0 | 216 | 0.0 | 1.0 | 0.00 | 0.00 | 0.00 | 90 | 1025.2 |
| 20260507015609 | 0 | 212 | 1.0 | 1.0 | 0.00 | 0.00 | 0.00 | 89 | 1025.0 |
| 20260507015109 | 0 | 204 | 1.0 | 2.0 | 0.00 | 0.00 | 0.00 | 90 | 1025.2 |
| 20260507014609 | 0 | 230 | 1.0 | 3.0 | 0.00 | 0.00 | 0.00 | 89 | 1025.0 |
| 20260507014108 | 0 | 198 | 2.0 | 3.0 | 0.00 | 0.00 | 0.00 | 90 | 1025.0 |
| 20260507013608 | 0 | 205 | 1.0 | 2.0 | 0.00 | 0.00 | 0.00 | 90 | 1025.2 |
| 20260507012608 | 0 | 228 | 1.0 | 1.0 | 0.00 | 0.00 | 0.00 | 91 | 1025.2 |
| 20260507012109 | 0 | 200 | 0.0 | 1.0 | 0.00 | 0.00 | 0.00 | 90 | 1025.5 |
| 20260507011608 | 0 | 257 | 3.0 | 4.0 | 0.00 | 0.00 | 0.00 | 90 | 1025.2 |
| 20260507011109 | 0 | 229 | 1.0 | 2.0 | 0.00 | 0.00 | 0.00 | 90 | 1025.2 |
| 20260507010609 | 0 | 213 | 1.0 | 2.0 | 0.00 | 0.00 | 0.00 | 89 | 1025.2 |
| 20260507010108 | 0 | 200 | 1.0 | 2.0 | 0.00 | 0.00 | 0.00 | 90 | 1025.2 |
| 20260507005608 | 0 | 245 | 3.0 | 4.0 | 0.00 | 0.00 | 0.00 | 90 | 1025.2 |
| 20260507005108 | 0 | 236 | 2.0 | 3.0 | 0.00 | 0.00 | 0.00 | 90 | 1025.2 |
| 20260507004609 | 0 | 250 | 2.0 | 2.0 | 0.00 | 0.00 | 0.00 | 90 | 1025.2 |
| 20260507004109 | 0 | 207 | 2.0 | 2.0 | 0.00 | 0.00 | 0.00 | 90 | 1025.2 |
| 20260507003608 | 0 | 218 | 2.0 | 4.0 | 0.00 | 0.00 | 0.00 | 90 | 1025.4 |
| 20260507003108 | 0 | 216 | 1.0 | 2.0 | 0.00 | 0.00 | 0.00 | 89 | 1025.4 |
| 20260507002608 | 0 | 197 | 2.0 | 4.0 | 0.00 | 0.00 | 0.00 | 89 | 1025.2 |
| 20260507002109 | 0 | 216 | 2.0 | 3.0 | 0.00 | 0.00 | 0.00 | 89 | 1025.2 |
| 20260507001608 | 0 | 248 | 3.0 | 4.0 | 0.00 | 0.00 | 0.00 | 89 | 1025.2 |
| 20260507001108 | 0 | 207 | 1.0 | 2.0 | 0.00 | 0.00 | 0.00 | 89 | 1025.2 |
| 20260507000608 | 0 | 209 | 0.0 | 1.0 | 0.00 | 0.00 | 0.00 | 89 | 1025.2 |
| 20260507000109 | 0 | 220 | 2.0 | 4.0 | 0.00 | 0.00 | 0.00 | 88 | 1025.2 |
| 20260506235608 | 0 | 203 | 1.0 | 2.0 | 0.00 | 0.00 | 0.00 | 89 | 1025.2 |
| 20260506235108 | 0 | 232 | 2.0 | 3.0 | 0.00 | 0.00 | 0.00 | 89 | 1025.4 |
| 20260506234609 | 0 | 239 | 2.0 | 2.0 | 0.00 | 0.00 | 0.00 | 89 | 1025.4 |
| 20260506234108 | 0 | 212 | 1.0 | 2.0 | 0.00 | 0.00 | 0.00 | 89 | 1025.4 |
| 20260506233608 | 0 | 255 | 1.0 | 2.0 | 0.00 | 0.00 | 0.00 | 89 | 1025.5 |
| 20260506233109 | 0 | 206 | 0.0 | 1.0 | 0.00 | 0.00 | 0.00 | 90 | 1025.5 |
| 20260506232610 | 0 | 199 | 0.0 | 1.0 | 0.00 | 0.00 | 0.00 | 89 | 1025.5 |
| 20260506232108 | 0 | 214 | 1.0 | 2.0 | 0.00 | 0.00 | 0.00 | 90 | 1025.4 |
| 20260506231609 | 0 | 209 | 2.0 | 3.0 | 0.00 | 0.00 | 0.00 | 89 | 1025.4 |
| 20260506231109 | 0 | 196 | 1.0 | 2.0 | 0.00 | 0.00 | 0.00 | 90 | 1025.5 |
| 20260506230609 | 0 | 246 | 2.0 | 3.0 | 0.00 | 0.00 | 0.00 | 90 | 1025.5 |
| 20260506230109 | 0 | 267 | 2.0 | 4.0 | 0.00 | 0.00 | 0.00 | 90 | 1025.5 |
| 20260506225609 | 0 | 194 | 0.0 | 0.0 | 0.00 | 0.00 | 0.00 | 90 | 1025.5 |
| 20260506225110 | 0 | 235 | 2.0 | 3.0 | 0.00 | 0.00 | 0.00 | 90 | 1025.5 |
| 20260506224608 | 0 | 198 | 2.0 | 3.0 | 0.00 | 0.00 | 0.00 | 90 | 1025.4 |
| 20260506224109 | 0 | 203 | 2.0 | 4.0 | 0.00 | 0.00 | 0.00 | 90 | 1025.4 |
| 20260506223610 | 0 | 198 | 1.0 | 2.0 | 0.00 | 0.00 | 0.00 | 91 | 1025.4 |
| 20260506223109 | 0 | 230 | 1.0 | 2.0 | 0.00 | 0.00 | 0.00 | 90 | 1025.2 |
| 20260506222608 | 0 | 255 | 1.0 | 4.0 | 0.00 | 0.00 | 0.00 | 90 | 1025.2 |
| 20260506222108 | 0 | 195 | 1.0 | 2.0 | 0.00 | 0.00 | 0.00 | 90 | 1025.4 |
| 20260506221609 | 0 | 190 | 2.0 | 3.0 | 0.00 | 0.00 | 0.00 | 91 | 1025.2 |
| 20260506221108 | 0 | 248 | 1.0 | 2.0 | 0.00 | 0.00 | 0.00 | 91 | 1025.5 |
| 20260506220609 | 0 | 197 | 0.0 | 1.0 | 0.00 | 0.00 | 0.00 | 91 | 1025.4 |
| 20260506220108 | 0 | 204 | 0.0 | 1.0 | 0.00 | 0.00 | 0.00 | 91 | 1025.4 |
| 20260506215608 | 0 | 198 | 1.0 | 2.0 | 0.00 | 0.00 | 0.06 | 91 | 1025.5 |
| 20260506215108 | 0 | 276 | 2.0 | 3.0 | 0.00 | 0.00 | 0.06 | 91 | 1025.2 |
| 20260506214608 | 0 | 211 | 2.0 | 3.0 | 0.00 | 0.00 | 0.06 | 91 | 1025.2 |
| 20260506214109 | 0 | 248 | 1.0 | 2.0 | 0.00 | 0.00 | 0.06 | 92 | 1025.4 |
| 20260506213609 | 0 | 202 | 0.0 | 1.0 | 0.00 | 0.00 | 0.06 | 92 | 1025.2 |
| 20260506213109 | 0 | 197 | 1.0 | 2.0 | 0.00 | 0.00 | 0.06 | 92 | 1025.4 |
| 20260506212608 | 0 | 190 | 0.0 | 1.0 | 0.00 | 0.00 | 0.06 | 92 | 1025.4 |
| 20260506212108 | 0 | 198 | 0.0 | 1.0 | 0.00 | 0.00 | 0.06 | 92 | 1025.5 |
| 20260506211609 | 0 | 194 | 0.0 | 1.0 | 0.00 | 0.00 | 0.06 | 93 | 1025.2 |
| 20260506211108 | 0 | 205 | 0.0 | 0.0 | 0.00 | 0.00 | 0.06 | 93 | 1025.4 |
| 20260506210608 | 0 | 208 | 0.0 | 1.0 | 0.00 | 0.00 | 0.06 | 92 | 1025.5 |
| 20260506210108 | 0 | 220 | 1.0 | 2.0 | 0.00 | 0.00 | 0.06 | 92 | 1025.5 |
| 20260506205608 | 0 | 226 | 1.0 | 1.0 | 0.00 | 0.00 | 0.06 | 93 | 1025.4 |
| 20260506205108 | 0 | 235 | 1.0 | 2.0 | 0.00 | 0.00 | 0.06 | 93 | 1025.4 |
| 20260506204608 | 0 | 240 | 0.0 | 2.0 | 0.00 | 0.00 | 0.06 | 93 | 1025.2 |
| 20260506204109 | 0 | 199 | 0.0 | 0.0 | 0.00 | 0.00 | 0.06 | 94 | 1025.4 |
| 20260506203608 | 0 | 198 | 0.0 | 1.0 | 0.00 | 0.00 | 0.06 | 95 | 1025.5 |
| 20260506203109 | 0 | 212 | 0.0 | 1.0 | 0.00 | 0.00 | 0.06 | 95 | 1025.5 |
| 20260506202609 | 0 | 250 | 3.0 | 3.0 | 0.00 | 0.00 | 0.06 | 95 | 1025.4 |
| 20260506202109 | 0 | 224 | 1.0 | 2.0 | 0.00 | 0.00 | 0.06 | 96 | 1025.2 |
| 20260506201609 | 0 | 206 | 0.0 | 1.0 | 0.00 | 0.00 | 0.06 | 96 | 1025.2 |
| 20260506201109 | 0 | 216 | 1.0 | 2.0 | 0.00 | 0.00 | 0.06 | 96 | 1025.0 |
| 20260506200608 | 0 | 213 | 2.0 | 3.0 | 0.00 | 0.00 | 0.06 | 97 | 1025.2 |
| 20260506200108 | 0 | 215 | 1.0 | 2.0 | 0.00 | 0.00 | 0.06 | 97 | 1025.0 |
| 20260506195609 | 0 | 229 | 3.0 | 3.0 | 0.00 | 0.00 | 0.06 | 97 | 1025.0 |
| 20260506195108 | 0 | 220 | 1.0 | 1.0 | 0.00 | 0.00 | 0.06 | 97 | 1024.9 |
| 20260506194609 | 0 | 204 | 0.0 | 1.0 | 0.00 | 0.00 | 0.06 | 98 | 1024.7 |
| 20260506194108 | 0 | 204 | 1.0 | 2.0 | 0.00 | 0.00 | 0.06 | 98 | 1024.9 |
| 20260506193609 | 0 | 197 | 0.0 | 0.0 | 0.00 | 0.00 | 0.06 | 98 | 1024.7 |
| 20260506193109 | 0 | 195 | 0.0 | 0.0 | 0.00 | 0.00 | 0.06 | 98 | 1024.5 |
| 20260506192608 | 0 | 196 | 2.0 | 4.0 | 0.00 | 0.00 | 0.06 | 98 | 1024.7 |
| 20260506192108 | 0 | 266 | 3.0 | 5.0 | 0.00 | 0.00 | 0.06 | 98 | 1024.5 |
| 20260506191608 | 0 | 199 | 0.0 | 1.0 | 0.00 | 0.00 | 0.06 | 98 | 1024.5 |
| 20260506191108 | 0 | 198 | 0.0 | 0.0 | 0.00 | 0.00 | 0.06 | 98 | 1024.2 |
| 20260506190609 | 0 | 196 | 0.0 | 1.0 | 0.00 | 0.00 | 0.06 | 98 | 1024.5 |
| 20260506190109 | 0 | 194 | 0.0 | 1.0 | 0.00 | 0.00 | 0.06 | 98 | 1024.2 |
| 20260506185608 | 0 | 193 | 0.0 | 1.0 | 0.00 | 0.00 | 0.06 | 98 | 1024.0 |
| 20260506185108 | 0 | 189 | 0.0 | 0.0 | 0.00 | 0.00 | 0.06 | 98 | 1024.2 |
| 20260506184609 | 0 | 189 | 0.0 | 1.0 | 0.00 | 0.00 | 0.06 | 98 | 1024.0 |
| 20260506184109 | 0 | 45 | 0.0 | 1.0 | 0.00 | 0.00 | 0.06 | 98 | 1024.0 |
| 20260506183609 | 0 | 189 | 1.0 | 2.0 | 0.00 | 0.00 | 0.06 | 98 | 1024.0 |
| 20260506183109 | 0 | 219 | 2.0 | 3.0 | 0.00 | 0.00 | 0.06 | 98 | 1024.0 |
| 20260506182608 | 0 | 199 | 0.0 | 0.0 | 0.00 | 0.00 | 0.06 | 98 | 1023.8 |
| 20260506182109 | 0 | 186 | 0.0 | 1.0 | 0.00 | 0.00 | 0.06 | 98 | 1023.8 |
| 20260506181609 | 0 | 195 | 0.0 | 1.0 | 0.00 | 0.00 | 0.06 | 98 | 1023.7 |
| 20260506181108 | 0 | 147 | 0.0 | 2.0 | 0.00 | 0.00 | 0.06 | 98 | 1023.7 |
| 20260506180608 | 0 | 100 | 0.0 | 1.0 | 0.00 | 0.00 | 0.06 | 98 | 1023.6 |
| 20260506180109 | 0 | 188 | 0.0 | 1.0 | 0.00 | 0.00 | 0.06 | 98 | 1023.7 |
| 20260506175609 | 0 | 162 | 0.0 | 1.0 | 0.00 | 0.00 | 0.06 | 98 | 1023.7 |
| 20260506175109 | 0 | 38 | 1.0 | 2.0 | 0.00 | 0.00 | 0.06 | 98 | 1023.6 |
| 20260506174608 | 0 | 85 | 2.0 | 3.0 | 0.00 | 0.00 | 0.06 | 98 | 1023.5 |
| 20260506174109 | 0 | 190 | 1.0 | 3.0 | 0.00 | 0.00 | 0.06 | 98 | 1023.3 |
| 20260506173609 | 0 | 158 | 0.0 | 1.0 | 0.00 | 0.00 | 0.06 | 98 | 1023.5 |
| 20260506173109 | 0 | 248 | 0.0 | 0.0 | 0.00 | 0.00 | 0.06 | 98 | 1023.5 |
| 20260506172609 | 0 | 193 | 1.0 | 2.0 | 0.00 | 0.00 | 0.06 | 98 | 1023.5 |
| 20260506172108 | 0 | 132 | 1.0 | 2.0 | 0.00 | 0.00 | 0.06 | 98 | 1023.2 |
| 20260506171608 | 0 | 249 | 0.0 | 1.0 | 0.00 | 0.00 | 0.06 | 98 | 1023.3 |
| 20260506171109 | 0 | 217 | 1.0 | 2.0 | 0.00 | 0.00 | 0.06 | 98 | 1023.2 |
| 20260506170609 | 0 | 209 | 2.0 | 3.0 | 0.00 | 0.00 | 0.06 | 98 | 1023.2 |
| 20260506170109 | 0 | 202 | 1.0 | 2.0 | 0.00 | 0.00 | 0.06 | 98 | 1023.2 |
| 20260506165609 | 0 | 187 | 0.0 | 1.0 | 0.00 | 0.00 | 0.06 | 98 | 1023.2 |
| 20260506165108 | 0 | 199 | 1.0 | 2.0 | 0.00 | 0.00 | 0.06 | 97 | 1023.2 |
| 20260506164608 | 0 | 188 | 0.0 | 0.0 | 0.00 | 0.00 | 0.06 | 98 | 1023.2 |
| 20260506164108 | 0 | 165 | 0.0 | 0.0 | 0.00 | 0.00 | 0.06 | 98 | 1023.2 |
| 20260506163608 | 0 | 206 | 0.0 | 1.0 | 0.00 | 0.00 | 0.06 | 97 | 1023.3 |
| 20260506163108 | 0 | 287 | 1.0 | 2.0 | 0.00 | 0.00 | 0.06 | 98 | 1023.5 |
| 20260506162608 | 0 | 235 | 0.0 | 1.0 | 0.00 | 0.00 | 0.06 | 98 | 1023.3 |
| 20260506162109 | 0 | 257 | 0.0 | 1.0 | 0.00 | 0.00 | 0.06 | 98 | 1023.2 |
| 20260506161608 | 0 | 168 | 1.0 | 3.0 | 0.00 | 0.00 | 0.06 | 98 | 1023.2 |
| 20260506161108 | 0 | 176 | 0.0 | 1.0 | 0.00 | 0.00 | 0.06 | 98 | 1023.2 |
| 20260506160609 | 0 | 187 | 3.0 | 5.0 | 0.00 | 0.00 | 0.06 | 98 | 1023.2 |
| 20260506160108 | 0 | 42 | 2.0 | 3.0 | 0.00 | 0.00 | 0.06 | 98 | 1023.2 |
| 20260506155609 | 0 | 224 | 2.0 | 4.0 | 0.00 | 0.00 | 0.06 | 98 | 1023.3 |
| 20260506155108 | 0 | 216 | 0.0 | 1.0 | 0.00 | 0.00 | 0.06 | 98 | 1023.2 |
| 20260506154609 | 0 | 189 | 0.0 | 1.0 | 0.00 | 0.00 | 0.06 | 98 | 1023.1 |
| 20260506154109 | 0 | 94 | 1.0 | 1.0 | 0.00 | 0.00 | 0.06 | 98 | 1023.2 |
| 20260506153608 | 0 | 230 | 1.0 | 2.0 | 0.00 | 0.00 | 0.06 | 97 | 1023.2 |
| 20260506153110 | 0 | 194 | 0.0 | 1.0 | 0.00 | 0.00 | 0.06 | 98 | 1023.2 |
| 20260506152608 | 0 | 194 | 0.0 | 1.0 | 0.00 | 0.00 | 0.06 | 98 | 1023.2 |
| 20260506152110 | 0 | 206 | 1.0 | 2.0 | 0.00 | 0.00 | 0.06 | 97 | 1023.1 |
| 20260506151608 | 0 | 221 | 2.0 | 4.0 | 0.00 | 0.00 | 0.06 | 97 | 1023.0 |
| 20260506151108 | 0 | 117 | 2.0 | 5.0 | 0.00 | 0.00 | 0.06 | 97 | 1023.1 |
| 20260506150610 | 0 | 238 | 0.0 | 2.0 | 0.00 | 0.00 | 0.06 | 97 | 1023.2 |
| 20260506150108 | 0 | 134 | 0.0 | 1.0 | 0.00 | 0.00 | 0.06 | 97 | 1023.2 |
| 20260506145608 | 0 | 189 | 2.0 | 5.0 | 0.00 | 0.00 | 0.06 | 97 | 1023.2 |
| 20260506145109 | 0 | 182 | 1.0 | 1.0 | 0.00 | 0.00 | 0.06 | 97 | 1023.2 |
| 20260506144608 | 0 | 187 | 1.0 | 2.0 | 0.00 | 0.00 | 0.06 | 97 | 1023.0 |
| 20260506144109 | 0 | 182 | 0.0 | 1.0 | 0.00 | 0.00 | 0.06 | 97 | 1023.3 |
| 20260506143609 | 0 | 183 | 0.0 | 1.0 | 0.00 | 0.00 | 0.06 | 97 | 1023.2 |
| 20260506143108 | 0 | 191 | 0.0 | 0.0 | 0.00 | 0.00 | 0.06 | 97 | 1023.1 |
| 20260506142609 | 0 | 199 | 0.0 | 1.0 | 0.00 | 0.00 | 0.06 | 97 | 1023.1 |
| 20260506142108 | 0 | 180 | 0.0 | 1.0 | 0.00 | 0.00 | 0.06 | 96 | 1022.8 |
| 20260506141609 | 0 | 194 | 0.0 | 1.0 | 0.00 | 0.00 | 0.06 | 96 | 1023.2 |
| 20260506141109 | 0 | 188 | 0.0 | 1.0 | 0.00 | 0.00 | 0.06 | 97 | 1023.1 |
| 20260506140609 | 0 | 169 | 1.0 | 2.0 | 0.00 | 0.00 | 0.06 | 97 | 1023.2 |
| 20260506140109 | 0 | 180 | 0.0 | 1.0 | 0.00 | 0.00 | 0.06 | 97 | 1023.1 |
| 20260506135609 | 0 | 108 | 1.0 | 1.0 | 0.05 | 0.00 | 0.06 | 97 | 1023.0 |
| 20260506135109 | 0 | 196 | 0.0 | 1.0 | 0.05 | 0.00 | 0.06 | 97 | 1023.0 |
| 20260506134609 | 0 | 197 | 1.0 | 1.0 | 0.05 | 0.00 | 0.06 | 97 | 1023.1 |
| 20260506134109 | 0 | 352 | 2.0 | 4.0 | 0.05 | 0.00 | 0.06 | 97 | 1023.1 |
| 20260506133609 | 0 | 196 | 2.0 | 3.0 | 0.05 | 0.00 | 0.06 | 97 | 1023.3 |
| 20260506133109 | 0 | 207 | 2.0 | 3.0 | 0.05 | 0.00 | 0.06 | 97 | 1023.2 |
| 20260506132608 | 0 | 233 | 1.0 | 2.0 | 0.05 | 0.00 | 0.06 | 97 | 1023.3 |
| 20260506132109 | 0 | 274 | 0.0 | 0.0 | 0.04 | 0.00 | 0.05 | 96 | 1023.3 |
| 20260506131608 | 0 | 122 | 2.0 | 2.0 | 0.02 | 0.00 | 0.03 | 82 | 1023.5 |
| 20260506131108 | 0 | 261 | 0.0 | 0.0 | 0.00 | 0.00 | 0.01 | 88 | 1023.5 |
| 20260506130608 | 0 | 166 | 2.0 | 3.0 | 0.00 | 0.00 | 0.01 | 86 | 1023.5 |
| 20260506130109 | 0 | 166 | 2.0 | 3.0 | 0.00 | 0.00 | 0.01 | 86 | 1023.5 |
| 20260506125609 | 0 | 294 | 0.0 | 1.0 | 0.00 | 0.00 | 0.00 | 87 | 1023.2 |
| 20260506125108 | 0 | 185 | 2.0 | 3.0 | 0.00 | 0.00 | 0.00 | 84 | 1023.1 |
| 20260506124609 | 0 | 118 | 2.0 | 4.0 | 0.00 | 0.00 | 0.00 | 83 | 1023.2 |
| 20260506124108 | 0 | 94 | 2.0 | 2.0 | 0.00 | 0.00 | 0.00 | 81 | 1023.2 |
| 20260506123609 | 0 | 89 | 1.0 | 1.0 | 0.00 | 0.00 | 0.00 | 79 | 1023.3 |
| 20260506123109 | 0 | 100 | 1.0 | 2.0 | 0.00 | 0.00 | 0.00 | 80 | 1023.2 |
| 20260506122609 | 0 | 92 | 2.0 | 2.0 | 0.00 | 0.00 | 0.00 | 81 | 1023.2 |
| 20260506122109 | 0 | 116 | 2.0 | 3.0 | 0.00 | 0.00 | 0.00 | 84 | 1023.2 |
| 20260506121609 | 0 | 52 | 1.0 | 2.0 | 0.00 | 0.00 | 0.00 | 81 | 1023.2 |
| 20260506121109 | 0 | 164 | 1.0 | 3.0 | 0.00 | 0.00 | 0.00 | 82 | 1023.0 |
| 20260506120609 | 0 | 156 | 2.0 | 3.0 | 0.00 | 0.00 | 0.00 | 82 | 1023.1 |
| 20260506120109 | 0 | 38 | 1.0 | 2.0 | 0.00 | 0.00 | 0.00 | 79 | 1023.2 |
| 20260506115608 | 0 | 135 | 1.0 | 2.0 | 0.00 | 0.00 | 0.00 | 77 | 1023.2 |
| 20260506115108 | 0 | 83 | 0.0 | 0.0 | 0.00 | 0.00 | 0.00 | 80 | 1023.2 |
| 20260506114609 | 0 | 90 | 0.0 | 1.0 | 0.00 | 0.00 | 0.00 | 78 | 1023.2 |
| 20260506114108 | 0 | 125 | 2.0 | 4.0 | 0.00 | 0.00 | 0.00 | 79 | 1023.1 |
| 20260506113609 | 0 | 82 | 1.0 | 2.0 | 0.00 | 0.00 | 0.00 | 77 | 1023.2 |
| 20260506113109 | 0 | 126 | 0.0 | 1.0 | 0.00 | 0.00 | 0.00 | 81 | 1023.2 |
| 20260506112609 | 0 | 68 | 1.0 | 2.0 | 0.00 | 0.00 | 0.00 | 80 | 1023.3 |
| 20260506112109 | 0 | 80 | 0.0 | 1.0 | 0.00 | 0.00 | 0.00 | 83 | 1023.1 |
| 20260506111609 | 0 | 99 | 1.0 | 3.0 | 0.00 | 0.00 | 0.00 | 86 | 1023.3 |
| 20260506111109 | 0 | 111 | 1.0 | 2.0 | 0.00 | 0.00 | 0.00 | 87 | 1023.2 |
| 20260506110609 | 0 | 110 | 1.0 | 2.0 | 0.00 | 0.00 | 0.00 | 90 | 1023.2 |
| 20260506110108 | 0 | 89 | 2.0 | 2.0 | 0.00 | 0.00 | 0.00 | 91 | 1023.2 |
| 20260506105609 | 0 | 79 | 1.0 | 2.0 | 0.00 | 0.00 | 0.00 | 91 | 1023.3 |